Regional Weather Roundup
Issued by NWS

Home | Current Version | Previous Version | Graphics & Text | Print | Product List | Glossary On
Versions: 1 2 3 4 5 6 7 8 9 10 11 12 13 14 15 16 17 18 19 20 21 22 23 24 25 26 27
000
ASUS45 KPSR 301410
RWRAZ

ARIZONA HOURLY REGIONAL WEATHER ROUNDUP
NATIONAL WEATHER SERVICE PHOENIX AZ
700 AM MST TUE AUG 30 2016

NOTE: FAIR INDICATES FEW OR NO CLOUDS BELOW 12,000 FEET WITH NO
SIGNIFICANT WEATHER AND/OR OBSTRUCTIONS TO VISIBILITY.

AZZ001>003-036-301500-
NORTHWEST ARIZONA

CITY           SKY/WX    TMP DP  RH WIND       PRES   REMARKS
BULLHEAD CITY  CLEAR     82  46  28 CALM      29.84R
KINGMAN        CLEAR     72  49  44 SE3       30.07R
$$

AZZ004>008-015-016-018-301500-
NORTH CENTRAL ARIZONA

CITY           SKY/WX    TMP DP  RH WIND       PRES   REMARKS
GRAND CANYON   SUNNY     52  45  77 CALM      30.33R
PRESCOTT       SUNNY     60  49  66 CALM      30.21R
FLAGSTAFF      SUNNY     51  46  83 CALM      30.36R
PAYSON         SUNNY     70  46  43 E3        30.26R
PAGE           SUNNY     70  41  34 CALM      30.18R
$$

AZZ009>014-017-301500-
NORTHEAST ARIZONA

CITY           SKY/WX    TMP DP  RH WIND       PRES   REMARKS
WINSLOW        SUNNY     59  48  67 CALM      30.23R
SAINT JOHNS    SUNNY     59  48  67 CALM      30.27R
WINDOW ROCK    CLOUDY    51  43  74 CALM      30.37R
SHOW LOW       SUNNY     59  45  58 S13       30.31R
$$

AZZ023-301500-
GREATER PHOENIX AREA

CITY           SKY/WX    TMP DP  RH WIND       PRES   REMARKS
PHOENIX        MOSUNNY   87  47  24 E7        29.88R
BUCKEYE        SUNNY     90  43  19 E14G20    29.88R
GLENDALE       MOSUNNY   84  48  28 N7        29.90R
LUKE AFB       SUNNY     81  52  36 N6        29.89R
DEER VALLEY    SUNNY     88  45  22 E7        29.91R
SCOTTSDALE     SUNNY     90  52  27 CALM      29.92R
MESA-FALCON    MOSUNNY  N/A N/A N/A NE7       29.88R
MESA-GATEWAY   MOSUNNY   81  48  32 E7        29.91R
CHANDLER       SUNNY     81  50  34 CALM      29.90
$$

AZZ027-028-301500-
SOUTHWEST MARICOPA COUNTY AND PINAL COUNTY

CITY           SKY/WX    TMP DP  RH WIND       PRES   REMARKS
CASA GRANDE    SUNNY     84  48  28 E8        29.92R
GILA BEND      SUNNY     83  38  19 N5        29.83R
$$

AZZ503-504-507>509-301500-
SOUTHEAST ARIZONA

CITY           SKY/WX    TMP DP  RH WIND       PRES   REMARKS
TUCSON         SUNNY     81  55  40 SE15      30.02R
DAVIS-MONTHAN  SUNNY     82  54  38 E12       30.01R
RYAN FIELD     SUNNY     81  55  41 E12G17    30.00R
NOGALES        SUNNY     74  55  51 VRB5      30.10R
SIERRA VISTA   SUNNY     70  54  57 SE6       30.18R
DOUGLAS        SUNNY     73  54  51 E9        30.15R
SAFFORD        SUNNY     75  56  51 S9        30.11R
$$

AZZ020-021-025-026-031-301500-
SOUTHWEST ARIZONA

CITY           SKY/WX    TMP DP  RH WIND       PRES   REMARKS
YUMA           PTCLDY    88  49  25 E3        29.76R
$$

CAZ031-033-041-043-047-048-061-301500-
SOUTHERN CALIFORNIA

CITY           SKY/WX    TMP DP  RH WIND       PRES   REMARKS
DOWNTOWN L.A.  CLOUDY    67  64  90 E5        29.87S FOG
L.A. AIRPORT   CLOUDY    68  64  87 E7        29.87S FOG
SAN DIEGO      CLOUDY    68  64  87 CALM      29.88S FOG
BURBANK        CLEAR     67  61  81 SE7       29.88R
ONTARIO        PTCLDY    69  57  65 VRB5      29.89R
RIVERSIDE      CLEAR     68  60  75 CALM      29.89R
PALM SPRINGS   CLEAR     84  52  33 CALM      29.79R
EL CENTRO NAS  PTCLDY    81  42  25 NW3       29.76R
IMPERIAL       CLEAR     83  48  29 W6        29.74R
BLYTHE         CLEAR     82  45  27 S3        29.79R
NEEDLES        CLEAR     87  56  34 CALM      29.85R
$$

NVZ020-UTZ003-301500-
SOUTHERN NEVADA-UTAH

CITY           SKY/WX    TMP DP  RH WIND       PRES   REMARKS
LAS VEGAS      PTCLDY    81  36  19 S3        29.94R
SALT LAKE CITY MOSUNNY   71  41  33 S7        30.14R
$$

NMZ009-TXZ055-301500-
NEW MEXICO-WEST TEXAS

CITY           SKY/WX    TMP DP  RH WIND       PRES   REMARKS
ALBUQUERQUE    MOSUNNY   61  50  67 NW6       30.34R
EL PASO        CLOUDY    71  61  70 NE6       30.19R
$$


........................KEY........................
SKY/WX - SKY CONDITION/WEATHER
TMP    - TEMPERATURE IN FAHRENHEIT
DP     - DEW POINT IN FAHRENHEIT
RH     - RELATIVE HUMIDITY IN PERCENT
WIND   - DIRECTION AND SPEED IN MILES PER HOUR (MPH)
VRB    - VARIABLE WIND DIRECTION
PRES   - MEAN SEA LEVEL PRESSURE IN INCHES OF MERCURY
         F - FALLING PRESSURE   R - RISING PRESSURE
         S - STEADY PRESSURE
VSB    - VISIBILITY IN MILES
HX     - HEAT INDEX IN FAHRENHEIT
WCI    - WIND CHILL INDEX IN FAHRENHEIT
TC     - TEMPERATURE IN CELSIUS WHICH IS ALSO KNOWN AS
         TEMPERATURE IN CENTIGRADE
AFB    - AIR FORCE BASE
         LUKE AFB IS LUKE AIR FORCE BASE
         DAVIS-MONTHAN IS DAVIS-MONTHAN AIR FORCE BASE
NAS    - NAVAL AIR STATION
         EL CENTRO NAS IS EL CENTRO NAVAL AIR STATION
N/A    - NOT AVAILABLE





USA.gov is the U.S. government's official web portal to all federal, state and local government web resources and services.